Temp
56 56 56 56 57 57 56 56 56 57 57 58 58 58 58 58 58 61 72 73 68 69 70 71 71 67 69 69 62 64 61 61 58 46 43 48 49 54 53 55 53 55 53 54 57 54 51 69 68 57 56 66 71 75
56 56 56 56 56 56 56 55 56 56 57 57 58 58 58 57 58 58 69 75 74 68 70 75 75 76 73 73 69 68 61 58 55 47 40 47 45 52 52 47 64 53 61 58 61 60 65 68 67 67 69 65 68 71
55 55 55 55 56 56 56 55 56 56 56 57 58 58 58 57 57 56 69 73 73 69 70 70 68 75 80 78 79 64 64 63 54 54 44 43 42 53 46 50 53 60 62 58 60 62 62 66 69 69 70 71 72 72
55 55 55 55 55 55 55 55 56 56 56 57 57 58 58 57 56 55 69 74 72 69 63 67 79 73 79 80 75 74 66 63 56 51 42 41 43 52 45 50 50 51 56 58 60 63 65 64 64 65 67 71 72 73
54 54 54 55 55 55 54 55 56 56 56 57 57 57 57 56 55 60 69 74 75 65 60 66 74 77 78 76 73 73 64 62 54 43 40 38 45 46 47 50 49 47 48 49 54 56 57 60 63 63 63 63 68 71
54 54 54 55 55 54 54 55 56 56 56 56 56 56 56 56 54 63 57 71 74 72 63 62 74 71 74 74 71 66 65 62 62 53 46 44 46 42 37 37 44 51 49 51 48 54 60 62 63 61 60 61 68 68
54 54 54 54 54 54 55 55 55 55 55 55 55 55 55 55 62 56 53 60 59 69 63 62 64 71 74 72 71 68 68 65 63 54 48 47 43 42 43 37 46 46 49 52 56 59 58 60 55 57 57 62 66 68
53 54 54 54 54 55 55 55 55 55 55 55 54 54 55 55 56 59 65 57 60 65 66 58 61 65 73 65 62 71 55 61 56 53 56 50 47 47 37 45 47 48 46 49 53 57 55 59 57 54 54 59 61 65
54 54 53 53 54 55 55 54 54 54 54 54 54 54 61 60 58 60 58 59 67 62 56 62 55 53 72 67 66 65 64 51 60 53 55 57 53 43 48 47 47 46 44 45 51 55 56 54 52 53 52 55 62 62
54 53 53 53 54 54 54 54 54 54 53 54 58 58 52 57 57 59 61 56 55 57 59 55 67 58 70 67 61 57 55 51 45 54 62 52 47 55 56 55 51 47 47 48 49 49 53 51 49 50 50 57 58 59
53 53 54 54 54 54 54 54 53 53 53 58 56 49 52 56 60 58 49 48 52 47 56 59 62 61 72 58 55 63 52 51 44 51 50 46 43 53 57 57 54 50 48 47 48 47 50 52 51 49 50 57 59 60
54 54 54 54 54 54 54 53 53 59 63 58 60 58 55 52 49 46 44 48 46 49 58 57 56 63 64 69 61 63 53 53 44 59 51 41 49 57 58 59 58 56 52 48 48 46 46 47 47 48 52 52 57 59
54 54 54 54 54 54 54 53 54 56 55 65 58 52 49 49 40 41 38 42 44 56 59 61 55 63 64 66 60 55 49 48 58 48 43 47 54 57 59 60 59 60 58 54 50 49 48 49 51 50 49 52 57 59
54 54 54 54 54 53 54 53 55 58 59 53 49 38 46 45 51 53 55 53 57 59 60 61 57 56 57 54 54 48 53 53 42 38 38 51 55 57 58 59 59 56 59 57 53 53 53 51 49 52 53 54 57 59
54 54 54 54 54 54 53 54 55 61 57 52 54 45 53 60 61 61 60 60 61 62 60 57 57 57 55 51 52 51 47 38 41 39 47 53 56 58 58 56 58 58 58 58 60 59 60 60 57 56 59 59 59 61
54 54 58 54 54 53 53 54 58 61 54 51 58 56 58 53 59 62 62 57 60 60 59 58 46 45 46 50 46 45 41 36 44 50 56 56 55 57 58 59 56 57 56 57 56 61 60 58 58 60 63 63 63 62
52 60 53 53 53 53 54 56 58 51 49 51 53 51 51 50 52 55 58 57 56 54 50 49 45 42 49 42 40 44 39 46 55 54 59 58 57 57 58 58 57 59 58 58 59 61 61 63 63 61 58 60 61 64
62 55 53 53 55 55 56 54 51 49 47 46 44 45 49 49 49 55 57 57 53 50 49 46 48 44 40 39 39 46 54 58 58 58 58 58 58 58 57 56 58 59 59 60 60 61 61 60 61 61 61 63 63 64
61 58 53 54 58 58 52 51 51 46 47 47 47 48 47 48 51 57 61 62 63 63 55 50 41 38 38 44 45 49 55 56 56 56 56 57 58 57 59 59 59 60 60 59 59 61 61 60 61 63 63 64 63 64
53 53 54 55 55 52 49 49 53 49 48 46 48 47 48 49 52 58 60 62 62 59 53 46 43 44 47 53 58 58 59 60 58 55 55 58 59 59 58 60 61 60 62 63 61 55 64 63 64 64 64 62 62 60
56 56 55 56 59 58 59 57 52 53 53 47 48 50 47 50 53 54 55 63 57 53 52 55 55 58 60 60 62 61 60 61 59 59 58 58 61 62 62 63 63 64 63 62 62 61 56 61 62 64 64 63 63 62
60 55 59 59 54 57 57 61 58 62 57 56 52 50 44 45 50 54 57 54 54 57 60 59 60 60 60 60 62 63 62 62 62 61 56 57 60 61 62 64 64 62 62 63 63 62 62 63 63 64 63 64 61 62
56 58 57 57 53 51 53 64 57 59 53 52 55 51 49 50 52 59 51 53 56 61 61 62 61 62 61 62 64 64 65 62 62 64 64 65 64 65 64 64 64 62 60 62 64 63 61 53 60 62 64 64 63 62
55 53 51 54 58 54 66 59 59 60 62 54 56 49 49 51 56 51 46 49 56 60 60 60 64 62 63 61 62 63 65 67 66 65 67 65 63 63 65 64 64 64 63 63 63 62 62 62 55 62 62 62 61 61
48 51 54 41 64 61 57 60 60 58 55 56 54 54 55 57 52 47 45 49 55 56 59 62 65 65 62 63 65 64 65 67 64 62 65 67 65 63 63 62 63 64 65 62 59 60 60 61 61 61 60 60 59 59
44 62 51 64 65 63 64 59 59 58 61 58 58 61 63 59 53 46 50 53 56 60 61 62 64 65 64 66 63 64 65 68 67 64 64 67 65 63 61 59 58 59 64 63 61 59 59 60 59 58 59 57 49 57
50 62 69 74 71 69 67 67 68 64 60 58 61 60 60 53 52 56 61 62 61 64 64 67 68 66 66 66 67 67 68 68 65 65 67 67 67 66 64 60 57 60 64 63 62 61 59 59 58 58 58 59 58 58
69 69 62 67 68 70 62 64 61 58 62 67 67 57 55 55 56 62 64 66 68 69 69 70 70 72 69 68 69 68 67 67 67 68 68 68 68 67 66 65 64 48 62 64 64 65 64 63 62 61 60 59 60 63
68 71 69 62 64 64 64 63 64 67 68 69 64 60 60 65 67 65 67 70 71 70 67 67 68 70 69 69 70 70 69 69 64 60 59 60 61 64 68 68 65 64 64 64 49 55 62 62 62 62 62 62 62 63
66 75 66 63 61 61 65 69 66 69 71 69 69 66 65 66 69 72 70 70 68 68 69 70 69 69 67 67 66 67 71 71 70 67 62 62 64 69 70 69 69 70 70 68 68 66 45 55 59 60 58 60 61 63
73 72 66 66 62 65 68 71 71 71 71 69 70 66 63 64 68 71 71 71 72 72 71 69 69 70 69 68 66 64 65 70 68 68 67 70 70 69 68 69 70 70 69 68 67 67 66 64 65 64 64 62 62 61
72 67 66 61 62 67 70 68 68 66 67 66 65 68 66 64 61 66 71 71 69 69 64 67 69 69 72 73 72 70 52 70 68 68 67 69 68 68 69 70 71 70 69 68 68 68 65 64 64 63 62 62 61 61
71 71 70 66 64 62 66 67 64 63 65 63 64 67 66 65 62 70 74 74 72 71 71 71 73 74 72 72 72 70 63 69 57 48 50 48 43 50 62 68 69 69 69 68 68 68 66 65 64 63 63 62 62 62
MSLP
1017.32 1017.24 1016.98 1016.80 1016.58 1016.72 1016.66 1017.11 1017.48 1017.84 1017.81 1017.88 1018.20 1018.41 1018.43 1018.42 1018.18 1017.70 1015.49 1015.60 1014.84 1012.61 1012.43 1012.83 1012.66 1012.39 1012.26 1011.92 1011.96 1012.98 1013.88 1014.59 1015.04 1016.14 1016.76 1015.60 1014.62 1012.89 1011.57 1010.89 1010.03 1009.01 1009.02 1008.49 1008.15 1007.53 1007.48 1007.76 1006.91 1007.84 1009.58 1007.84 1007.00 1005.76
1016.80 1016.44 1016.22 1015.97 1016.04 1015.99 1016.49 1016.71 1017.07 1017.48 1017.90 1017.76 1018.02 1018.36 1018.43 1018.49 1018.26 1018.14 1015.55 1015.35 1015.32 1014.10 1013.14 1013.43 1013.30 1013.24 1013.18 1013.04 1012.60 1013.26 1014.48 1015.42 1016.79 1017.84 1019.04 1018.28 1016.66 1014.70 1013.33 1011.65 1010.17 1010.12 1009.48 1008.89 1008.51 1008.46 1009.19 1009.61 1009.69 1009.60 1009.79 1009.29 1008.39 1007.46
1016.04 1015.92 1015.64 1015.49 1015.36 1015.59 1015.79 1016.36 1016.76 1017.22 1017.66 1017.69 1017.83 1018.20 1018.47 1018.41 1018.45 1018.48 1016.24 1015.53 1014.88 1013.71 1013.26 1013.34 1013.02 1013.48 1013.56 1013.46 1013.53 1013.75 1014.90 1016.33 1018.51 1019.98 1020.56 1020.10 1018.61 1016.56 1015.17 1013.86 1013.18 1011.91 1011.95 1010.69 1009.96 1010.08 1010.44 1010.68 1011.04 1011.36 1011.11 1010.39 1009.69 1009.19
1015.22 1015.12 1015.12 1014.96 1015.03 1015.32 1015.80 1016.47 1016.82 1017.13 1017.46 1017.72 1017.90 1018.09 1018.52 1018.60 1018.51 1018.52 1016.48 1015.47 1015.07 1014.04 1012.66 1012.33 1012.66 1013.18 1013.58 1013.58 1014.15 1014.44 1015.88 1017.48 1019.22 1020.52 1021.16 1021.00 1019.75 1018.81 1017.53 1016.74 1015.90 1015.62 1014.47 1012.86 1011.68 1011.62 1011.47 1011.85 1012.30 1012.43 1012.02 1011.44 1010.88 1010.30
1014.81 1014.58 1014.43 1014.39 1014.55 1015.15 1015.88 1016.25 1016.62 1016.97 1017.23 1017.30 1017.90 1018.14 1018.46 1018.78 1018.78 1018.40 1016.94 1015.82 1015.60 1015.50 1013.49 1012.12 1012.67 1012.96 1013.46 1013.64 1014.21 1014.74 1016.04 1017.15 1018.83 1020.43 1021.23 1021.44 1021.08 1020.42 1019.56 1018.67 1017.78 1018.32 1017.41 1016.24 1013.94 1014.74 1013.87 1013.53 1013.67 1013.74 1013.07 1012.74 1011.92 1011.24
1014.44 1014.23 1013.95 1013.85 1014.26 1014.85 1015.73 1016.23 1016.60 1016.98 1017.33 1017.41 1017.94 1018.29 1018.50 1018.80 1019.06 1018.17 1017.29 1016.72 1016.12 1015.88 1014.68 1012.03 1012.07 1012.58 1013.05 1013.59 1014.14 1014.82 1015.79 1016.60 1017.31 1018.77 1020.13 1021.21 1021.65 1021.69 1020.96 1020.20 1019.88 1019.42 1019.28 1018.62 1017.19 1016.61 1015.36 1014.99 1014.88 1014.81 1014.34 1013.65 1012.85 1012.46
1013.84 1013.74 1013.75 1013.83 1014.60 1015.14 1015.68 1016.14 1016.50 1017.08 1017.49 1017.78 1018.07 1018.29 1018.60 1019.00 1018.72 1018.60 1018.43 1018.12 1017.80 1016.85 1014.97 1012.54 1011.41 1012.36 1012.70 1013.37 1013.47 1014.02 1014.77 1015.48 1016.34 1017.85 1018.82 1019.98 1021.02 1021.50 1020.86 1020.73 1020.41 1020.21 1019.63 1018.97 1017.83 1016.71 1016.01 1015.77 1015.98 1015.77 1015.45 1014.74 1013.80 1013.06
1013.47 1013.43 1013.72 1014.21 1014.77 1015.19 1015.51 1015.98 1016.55 1017.09 1017.66 1018.15 1018.36 1018.55 1018.81 1019.03 1019.08 1018.48 1018.07 1018.50 1018.12 1016.42 1015.20 1013.10 1011.61 1011.88 1012.55 1012.42 1012.81 1013.28 1015.04 1015.81 1016.49 1017.06 1017.45 1018.50 1019.86 1020.20 1020.32 1020.38 1020.45 1020.28 1019.88 1019.00 1018.19 1017.56 1017.34 1016.82 1016.84 1016.71 1016.53 1015.33 1014.50 1013.61
1013.32 1013.56 1014.14 1014.64 1015.16 1015.56 1015.92 1016.20 1016.64 1017.23 1017.85 1018.37 1018.62 1018.79 1018.44 1018.72 1018.17 1018.11 1018.50 1018.36 1017.61 1017.36 1015.41 1012.84 1012.04 1011.66 1011.96 1012.16 1012.90 1013.45 1014.27 1015.51 1016.06 1016.04 1015.89 1016.63 1017.46 1018.64 1018.93 1019.46 1019.98 1020.15 1020.02 1019.49 1018.91 1018.18 1017.85 1017.45 1017.57 1017.30 1017.04 1016.42 1014.74 1014.51
1013.64 1014.02 1014.55 1015.00 1015.48 1015.89 1016.11 1016.42 1016.94 1017.56 1018.07 1018.56 1018.60 1018.43 1018.22 1018.41 1018.78 1018.64 1018.46 1017.58 1017.20 1016.83 1016.06 1014.16 1012.27 1011.56 1011.01 1011.22 1012.33 1013.45 1014.58 1014.92 1015.34 1015.18 1015.02 1016.14 1017.30 1017.83 1018.23 1018.74 1019.76 1020.26 1020.10 1019.78 1019.14 1018.78 1018.50 1018.14 1018.39 1017.98 1017.73 1016.75 1015.94 1015.58
1014.28 1014.74 1014.98 1015.44 1015.95 1016.35 1016.71 1017.10 1017.31 1017.92 1018.41 1018.41 1017.71 1018.37 1019.25 1019.15 1018.58 1017.81 1017.46 1017.15 1016.55 1016.18 1015.08 1013.68 1012.62 1011.70 1011.38 1011.68 1012.56 1012.73 1013.77 1014.58 1014.63 1014.54 1014.98 1015.88 1017.08 1017.45 1017.88 1018.19 1019.48 1020.36 1020.52 1020.15 1020.09 1019.99 1019.52 1019.16 1019.02 1018.84 1018.44 1017.14 1016.40 1016.18
1014.81 1014.96 1015.25 1015.60 1016.20 1016.71 1016.98 1017.32 1017.54 1017.20 1016.80 1016.91 1017.21 1018.54 1019.07 1018.77 1018.22 1017.52 1016.92 1016.56 1016.00 1014.41 1013.35 1012.82 1012.70 1012.45 1012.32 1011.96 1012.04 1012.43 1013.09 1014.09 1013.90 1014.01 1014.58 1015.90 1017.03 1017.29 1017.64 1017.96 1018.48 1019.52 1020.40 1020.69 1020.48 1020.26 1020.17 1019.84 1019.70 1019.34 1018.34 1017.73 1017.32 1016.95
1015.10 1015.30 1015.63 1015.92 1016.57 1016.96 1017.37 1017.67 1017.98 1017.93 1017.56 1016.48 1016.80 1017.44 1017.87 1017.61 1017.04 1016.08 1015.35 1014.94 1014.30 1013.28 1012.94 1012.57 1012.82 1012.70 1012.86 1012.57 1012.98 1013.34 1013.50 1013.78 1014.02 1014.52 1015.36 1016.29 1016.95 1017.12 1017.44 1017.83 1018.19 1018.64 1019.40 1020.00 1020.40 1020.35 1020.30 1020.34 1020.26 1019.82 1019.46 1018.63 1017.85 1017.27
1015.54 1015.74 1016.02 1016.46 1016.89 1017.26 1017.62 1018.08 1018.25 1017.78 1017.25 1016.58 1016.58 1016.57 1016.31 1015.42 1014.31 1013.20 1012.76 1012.52 1012.41 1012.46 1012.60 1012.87 1013.22 1013.26 1013.58 1013.57 1013.71 1013.76 1014.13 1014.42 1014.78 1015.34 1015.97 1016.39 1016.92 1017.18 1017.59 1017.99 1018.38 1018.88 1018.73 1019.19 1019.60 1019.74 1019.99 1020.20 1020.29 1020.20 1019.52 1019.29 1018.26 1017.52
1015.79 1016.07 1016.48 1016.92 1017.14 1017.53 1017.95 1018.36 1018.47 1017.68 1017.11 1016.22 1015.72 1014.79 1013.82 1012.60 1012.30 1012.09 1012.12 1012.16 1012.47 1012.65 1013.12 1013.70 1014.29 1014.58 1014.32 1014.35 1014.39 1014.43 1014.54 1015.22 1015.64 1016.05 1016.40 1016.86 1017.19 1017.34 1017.65 1018.12 1018.26 1018.63 1019.08 1019.05 1019.18 1019.32 1018.98 1018.96 1019.09 1019.26 1019.45 1019.16 1018.52 1018.64
1015.94 1016.24 1016.56 1016.96 1017.38 1017.85 1018.30 1018.71 1018.32 1017.76 1017.36 1016.58 1014.84 1014.12 1013.37 1013.18 1012.36 1011.80 1012.02 1012.50 1012.94 1013.36 1014.01 1014.44 1015.34 1015.46 1014.97 1014.76 1014.77 1014.81 1015.19 1015.60 1015.82 1016.23 1016.53 1017.18 1017.70 1017.94 1018.06 1018.06 1018.75 1019.19 1019.41 1019.36 1019.38 1019.25 1019.28 1019.48 1019.50 1019.23 1018.99 1018.92 1018.93 1018.82
1016.40 1016.18 1017.00 1017.36 1017.82 1018.27 1018.57 1018.55 1018.14 1017.90 1017.52 1016.52 1015.59 1015.66 1015.13 1014.54 1013.51 1013.03 1013.04 1013.53 1013.77 1014.04 1014.49 1015.37 1015.36 1015.63 1015.80 1015.72 1015.69 1015.89 1016.12 1016.05 1015.96 1016.50 1016.76 1017.29 1017.71 1018.11 1018.30 1018.79 1019.25 1019.22 1019.24 1019.20 1019.18 1019.23 1019.36 1019.12 1019.41 1019.37 1019.46 1019.25 1018.82 1018.47
1015.98 1016.88 1017.31 1017.71 1018.05 1018.54 1018.62 1018.60 1018.13 1017.77 1017.40 1017.51 1017.36 1017.02 1016.26 1015.73 1015.07 1014.06 1013.98 1014.23 1014.56 1015.11 1015.45 1015.55 1015.76 1015.73 1016.12 1016.23 1016.58 1016.64 1016.11 1016.04 1016.41 1016.88 1017.49 1017.95 1018.26 1018.55 1018.99 1019.33 1019.52 1019.66 1019.64 1019.64 1019.61 1019.36 1019.40 1019.30 1018.85 1018.63 1018.76 1018.55 1018.44 1018.40
1015.76 1016.81 1017.59 1017.90 1017.81 1017.57 1017.74 1018.02 1018.06 1017.64 1017.85 1018.13 1018.08 1017.80 1017.32 1016.82 1016.18 1015.20 1014.50 1014.41 1014.10 1014.06 1015.06 1016.13 1017.25 1017.71 1017.78 1017.58 1017.70 1017.61 1016.98 1016.96 1017.09 1017.66 1018.41 1018.76 1018.92 1019.15 1019.16 1019.32 1019.38 1019.37 1019.32 1019.46 1019.60 1019.32 1019.23 1019.44 1019.20 1018.92 1018.83 1018.53 1018.40 1018.34
1016.95 1017.64 1018.09 1018.22 1018.08 1017.51 1017.11 1017.28 1017.56 1017.27 1017.52 1018.25 1018.32 1018.20 1017.90 1017.54 1016.77 1015.57 1014.89 1014.40 1014.10 1014.09 1015.08 1016.82 1018.02 1018.67 1018.29 1017.88 1017.44 1017.13 1017.02 1017.16 1017.61 1018.00 1018.46 1018.82 1019.06 1019.23 1019.44 1019.32 1019.21 1019.17 1018.70 1018.51 1019.14 1019.04 1018.55 1018.71 1018.84 1018.98 1019.18 1019.30 1019.02 1019.31
1017.62 1018.18 1018.45 1018.20 1017.27 1016.81 1016.10 1016.15 1016.40 1016.50 1016.92 1017.70 1018.17 1018.18 1018.44 1017.85 1016.89 1016.43 1015.97 1015.08 1014.99 1015.29 1015.96 1016.77 1017.21 1017.56 1017.86 1017.99 1017.73 1017.50 1017.53 1017.62 1017.80 1018.07 1018.29 1018.53 1018.85 1018.88 1018.91 1018.84 1018.90 1018.76 1018.60 1018.68 1018.66 1018.99 1019.28 1019.20 1019.52 1019.44 1019.24 1019.33 1019.50 1019.85
1016.96 1017.97 1017.58 1017.49 1016.80 1015.99 1015.50 1014.88 1014.80 1015.02 1015.42 1016.34 1017.27 1018.11 1018.52 1018.29 1017.44 1016.98 1016.71 1016.40 1016.46 1016.38 1016.24 1016.53 1017.01 1017.46 1017.72 1017.77 1017.78 1017.76 1017.95 1017.97 1018.13 1018.38 1018.75 1018.86 1018.77 1018.63 1018.66 1018.70 1018.66 1018.70 1018.88 1018.96 1019.07 1019.19 1019.31 1019.71 1020.07 1019.76 1019.74 1019.46 1019.48 1019.95
1017.31 1017.28 1016.86 1016.32 1015.73 1014.99 1014.06 1013.68 1013.72 1013.95 1014.29 1015.28 1015.75 1016.45 1017.37 1017.62 1017.70 1017.36 1017.27 1017.57 1017.51 1017.30 1017.27 1017.22 1017.58 1017.70 1017.88 1017.96 1017.87 1017.86 1017.92 1018.15 1018.00 1017.98 1018.20 1018.26 1018.47 1018.63 1018.82 1018.94 1019.12 1019.22 1019.56 1019.59 1019.54 1019.70 1020.01 1020.42 1020.31 1020.25 1020.01 1019.78 1019.66 1019.74
1017.23 1016.67 1015.80 1014.84 1014.01 1012.71 1011.98 1012.20 1012.52 1012.65 1013.02 1014.05 1014.00 1015.50 1016.52 1016.82 1017.35 1017.46 1017.66 1017.93 1017.87 1017.77 1017.59 1017.65 1017.21 1017.30 1017.53 1017.84 1017.45 1017.58 1017.62 1017.52 1017.58 1017.78 1018.00 1018.14 1018.51 1018.80 1018.97 1019.26 1019.51 1019.75 1019.93 1020.22 1020.15 1020.34 1020.41 1020.71 1020.74 1020.53 1020.30 1020.16 1020.28 1020.03
1016.26 1015.09 1014.20 1013.02 1011.95 1011.24 1011.49 1011.10 1011.32 1012.03 1012.38 1012.96 1013.40 1014.03 1014.89 1015.86 1015.90 1016.97 1017.53 1017.84 1017.89 1017.76 1017.70 1017.25 1016.74 1016.72 1016.98 1016.81 1016.95 1017.68 1018.02 1017.52 1017.68 1017.96 1018.24 1018.39 1018.50 1019.04 1019.14 1019.84 1020.01 1020.06 1020.38 1020.48 1020.77 1020.85 1020.86 1020.93 1020.94 1020.92 1020.73 1020.74 1020.79 1020.66
1014.16 1012.59 1012.05 1010.82 1010.02 1009.90 1009.62 1009.84 1010.35 1010.93 1011.14 1011.71 1012.28 1012.94 1013.14 1013.30 1014.22 1015.81 1016.55 1017.19 1017.49 1017.37 1017.30 1017.06 1016.52 1016.33 1016.41 1016.72 1017.13 1017.31 1017.74 1018.03 1018.02 1018.08 1018.60 1018.64 1018.83 1019.06 1019.46 1019.88 1020.33 1020.62 1020.76 1020.99 1021.14 1021.25 1021.30 1021.29 1021.26 1021.31 1021.13 1021.21 1021.40 1021.15
1012.02 1010.66 1010.59 1010.50 1009.73 1009.83 1009.72 1010.02 1010.03 1010.30 1010.34 1010.85 1011.14 1011.62 1012.14 1012.54 1013.34 1014.70 1015.56 1016.52 1016.82 1016.97 1017.20 1017.14 1016.75 1016.52 1016.49 1016.98 1017.54 1018.03 1018.13 1018.48 1018.67 1019.01 1019.23 1019.41 1019.61 1019.84 1020.10 1020.52 1020.94 1021.15 1021.22 1021.36 1021.54 1021.53 1021.54 1021.51 1021.54 1021.54 1021.34 1021.37 1021.35 1021.24
1010.20 1010.01 1010.00 1010.18 1009.98 1010.02 1010.17 1010.16 1010.41 1010.60 1010.82 1010.88 1010.72 1011.43 1011.98 1012.48 1013.29 1014.41 1015.19 1015.84 1016.06 1016.39 1016.52 1016.70 1016.71 1016.56 1016.80 1017.38 1017.70 1018.21 1018.71 1019.10 1019.20 1019.12 1019.22 1019.48 1019.89 1020.25 1020.57 1020.85 1021.18 1021.57 1021.45 1021.37 1021.40 1021.34 1021.24 1021.16 1021.08 1021.01 1020.89 1020.80 1020.71 1020.65
1009.74 1009.97 1010.18 1010.27 1010.30 1010.65 1010.72 1010.60 1010.52 1011.06 1011.39 1010.81 1010.98 1011.66 1012.55 1013.25 1013.88 1014.51 1015.11 1015.31 1015.72 1015.83 1015.98 1016.32 1016.49 1016.89 1017.39 1017.72 1017.78 1018.08 1018.26 1018.17 1018.40 1018.70 1018.85 1019.00 1019.39 1019.63 1019.81 1019.92 1020.46 1020.90 1020.91 1020.86 1021.18 1021.18 1020.87 1020.91 1020.88 1020.61 1020.45 1020.24 1020.16 1020.12
1009.82 1009.70 1009.99 1010.38 1010.46 1010.66 1011.26 1011.22 1011.48 1011.76 1011.70 1011.85 1012.17 1012.73 1013.31 1013.82 1014.19 1014.67 1015.04 1015.24 1015.31 1015.38 1015.64 1015.87 1016.42 1016.63 1016.77 1017.14 1017.50 1017.87 1017.88 1018.09 1018.00 1018.19 1018.38 1018.71 1018.91 1019.16 1019.24 1019.32 1019.40 1019.42 1019.53 1019.54 1019.46 1019.79 1020.43 1020.77 1020.50 1020.26 1020.37 1020.10 1019.82 1019.38
1009.59 1009.67 1009.94 1010.38 1010.87 1011.34 1011.63 1011.83 1011.88 1011.89 1011.79 1012.02 1012.23 1012.64 1013.22 1014.02 1014.34 1014.57 1014.67 1014.78 1014.88 1014.89 1015.02 1015.47 1015.90 1016.27 1016.28 1016.59 1017.12 1017.76 1017.82 1018.18 1018.91 1019.24 1019.57 1019.14 1019.14 1019.32 1019.45 1019.40 1019.14 1019.20 1019.46 1019.48 1019.33 1019.21 1019.49 1019.61 1019.24 1019.10 1019.21 1019.31 1019.34 1019.15
1009.05 1009.36 1009.76 1010.30 1011.10 1011.76 1011.76 1011.63 1011.55 1011.70 1011.74 1011.95 1012.09 1012.37 1013.01 1013.42 1013.52 1013.92 1014.34 1014.47 1014.63 1014.56 1014.76 1014.99 1015.31 1015.70 1016.10 1016.39 1016.94 1017.58 1018.09 1018.32 1019.44 1019.80 1020.31 1020.10 1020.19 1020.23 1019.84 1019.33 1019.10 1019.42 1019.46 1019.20 1019.04 1018.93 1019.23 1019.24 1019.24 1019.33 1019.40 1019.40 1019.47 1019.42
1008.82 1009.06 1009.44 1010.19 1010.78 1011.26 1011.40 1011.39 1011.43 1011.44 1011.46 1011.55 1011.64 1011.72 1012.06 1012.28 1012.28 1012.25 1013.22 1013.97 1014.18 1014.23 1014.38 1014.96 1015.08 1015.36 1016.08 1016.54 1016.89 1017.47 1018.12 1018.75 1019.96 1020.52 1020.76 1021.14 1021.59 1021.44 1020.93 1020.02 1019.77 1019.85 1019.54 1019.27 1018.83 1018.78 1018.69 1018.95 1019.02 1019.11 1019.14 1019.22 1019.19 1019.09
Wind_Speed
17 16 14 13 12 10 9 11 9 7 6 4 4 3 3 6 8 7 3 3 6 6 7 1 2 1 2 4 3 5 2 3 4 3 3 5 8 4 7 7 4 8 9 9 11 16 11 13 7 7 8 14 16 14
16 14 13 14 12 10 11 13 10 8 6 6 5 3 3 5 7 8 5 0 4 6 8 1 2 5 7 10 4 5 4 5 5 3 1 5 5 5 12 7 3 6 5 5 2 5 11 12 12 11 12 10 14 13
15 15 13 13 10 11 12 13 11 9 8 7 7 5 5 5 7 6 7 3 4 5 5 6 8 7 6 3 8 2 4 4 6 6 2 2 6 6 5 7 10 8 13 8 9 13 10 10 12 11 11 11 9 11
15 14 13 12 9 8 13 11 9 9 8 8 8 7 5 5 5 7 6 4 5 5 5 8 4 9 7 7 2 7 13 13 9 4 2 2 5 7 5 8 9 6 11 10 11 7 4 12 10 12 12 13 11 9
15 14 12 10 10 13 13 11 10 10 10 10 8 7 5 4 5 9 7 3 3 7 6 5 8 10 9 8 6 9 11 8 5 3 2 2 4 4 5 5 5 6 8 6 4 15 9 8 9 12 13 14 10 7
14 13 10 9 15 17 14 11 10 9 9 9 9 7 5 3 5 4 2 1 6 5 5 3 9 9 12 9 8 9 9 5 3 5 4 3 2 2 1 2 2 7 9 12 8 18 8 8 8 12 11 15 3 9
12 11 8 13 16 14 12 11 10 9 8 10 9 8 6 2 5 2 3 4 8 8 5 5 7 8 9 9 10 8 12 6 4 2 3 4 4 4 1 2 9 12 12 14 16 10 8 3 5 12 11 15 10 7
10 7 12 17 16 13 12 12 11 9 11 10 9 8 5 3 8 4 2 5 6 5 4 5 4 7 13 9 6 2 4 2 2 2 5 4 6 3 1 5 6 9 9 11 6 1 2 3 8 9 13 10 6 8
4 14 18 18 14 12 12 13 13 14 13 12 10 8 5 4 2 3 2 3 4 4 5 4 1 2 9 8 4 10 6 4 2 4 5 6 3 1 3 3 3 7 5 11 2 3 3 7 10 9 14 10 7 9
13 17 18 16 12 13 14 15 16 15 13 11 7 5 3 4 6 5 4 4 4 2 4 4 4 5 5 4 8 6 4 2 3 6 3 1 4 2 9 9 6 7 6 10 6 4 6 3 8 11 11 4 5 5
16 16 13 12 13 13 15 16 17 15 9 3 4 3 2 4 2 3 2 2 3 3 5 6 6 4 3 1 3 4 4 3 3 4 5 3 3 6 6 11 13 13 7 6 5 8 7 4 6 9 9 6 6 5
14 13 12 13 14 14 17 18 19 8 4 3 8 6 2 2 2 3 3 3 4 4 6 6 4 4 2 3 3 2 1 4 2 4 3 4 6 8 10 7 12 14 12 12 14 11 9 10 10 11 1 5 1 4
11 11 11 12 13 16 16 15 12 9 7 3 2 4 3 4 4 5 5 4 4 5 4 5 4 2 3 4 1 2 3 1 2 2 3 4 9 7 8 8 8 13 12 11 10 10 10 10 10 8 8 7 5 5
10 10 10 11 14 15 15 13 3 6 4 1 3 2 5 5 7 6 7 3 1 3 7 4 4 2 1 2 2 3 2 1 3 2 2 8 10 8 8 8 9 11 10 12 12 13 11 7 7 5 2 2 5 8
11 10 10 11 15 14 12 9 4 4 3 3 4 5 8 4 3 2 3 5 5 6 7 5 4 1 1 3 2 2 5 3 4 1 5 7 9 8 6 8 5 8 9 8 11 9 10 10 9 6 4 4 8 8
12 13 5 15 14 13 14 5 3 2 2 4 5 7 6 5 3 7 8 7 6 7 6 4 3 2 3 3 4 2 5 3 3 6 7 9 8 7 5 5 11 9 5 7 5 6 8 7 8 9 8 7 8 9
9 1 11 15 14 14 11 3 2 2 3 4 5 6 5 3 3 8 9 8 7 3 2 3 4 4 3 1 2 2 3 6 10 6 9 10 9 7 6 9 9 8 7 5 6 7 8 5 5 4 3 4 7 6
1 10 15 16 13 9 4 3 2 2 3 3 4 7 4 5 7 8 8 5 4 2 2 2 3 3 2 1 3 2 7 8 7 9 10 10 11 10 9 10 9 8 5 6 5 4 5 6 7 5 4 1 2 3
13 12 16 15 3 1 3 4 1 1 2 2 2 6 6 4 6 4 6 4 4 4 3 4 5 4 4 5 5 5 4 7 8 9 9 10 10 9 7 7 6 3 3 5 2 3 0 1 3 4 8 7 4 6
16 14 12 2 4 2 3 3 2 2 3 2 1 3 2 2 5 3 5 5 4 3 5 5 4 4 4 6 5 6 4 7 8 8 7 7 6 6 5 5 5 5 6 5 6 3 1 4 4 5 5 4 6 10
10 6 3 3 3 4 3 4 4 2 5 3 2 1 3 6 6 7 7 6 8 8 11 9 8 8 9 6 4 4 6 6 7 6 6 6 3 3 4 3 2 2 2 5 5 5 2 6 5 6 2 5 3 5
5 14 3 6 3 3 4 4 2 6 4 5 5 5 2 2 3 5 2 7 6 7 6 9 9 9 8 8 7 8 7 7 7 6 4 4 3 3 3 3 3 5 5 4 4 5 5 7 5 5 6 4 2 4
12 4 3 4 3 3 3 6 5 7 5 7 5 5 3 2 2 1 3 4 2 5 6 8 9 9 8 8 7 5 5 4 3 5 3 3 4 3 3 3 4 5 5 5 5 6 7 4 2 5 3 4 4 3
3 3 4 5 7 4 6 5 3 3 3 5 5 7 3 3 3 2 3 2 5 2 5 7 7 7 8 5 5 6 2 2 3 5 2 3 3 3 3 5 5 6 6 5 4 4 4 3 5 5 5 7 7 6
3 3 4 5 3 1 4 5 4 4 4 5 6 5 7 8 4 3 3 3 5 4 4 5 4 4 3 6 7 7 2 3 3 5 3 3 3 5 4 7 4 5 5 4 4 3 4 4 5 4 4 6 9 11
3 4 3 4 4 3 1 5 5 1 8 4 4 5 5 5 5 4 5 6 6 6 4 4 1 1 4 5 5 5 6 3 2 5 6 5 5 5 5 5 4 4 5 5 4 5 5 4 4 6 5 4 3 7
4 3 3 3 4 3 1 3 5 3 2 4 4 3 2 1 4 5 9 8 7 7 4 3 2 3 6 6 5 4 5 5 7 7 6 6 6 7 7 7 6 4 4 5 4 4 3 3 4 3 3 3 3 3
3 4 5 3 3 3 3 3 2 2 3 2 0 4 3 4 3 5 8 9 9 9 8 7 4 2 6 4 7 6 7 6 7 7 7 7 7 5 6 7 6 4 3 4 2 1 1 2 2 2 4 3 3 2
3 4 4 4 3 3 3 3 3 4 3 4 2 4 3 5 8 8 7 7 6 6 5 6 5 5 5 4 4 6 6 7 6 7 5 5 6 5 4 5 9 9 8 9 11 8 4 3 4 7 7 6 4 5
3 2 4 3 2 3 3 4 5 3 3 5 6 8 7 6 7 8 7 6 6 7 6 5 6 5 6 7 6 5 3 5 5 3 4 4 4 2 1 1 1 1 2 3 3 10 12 8 10 12 10 9 7 7
4 2 4 4 4 4 5 4 4 3 4 5 5 6 7 5 4 5 6 6 6 5 7 7 7 6 5 7 7 6 6 3 7 6 7 3 4 6 5 4 3 3 4 4 4 4 3 6 6 7 8 9 9 8
4 3 4 4 5 3 3 4 4 3 3 2 3 4 6 5 6 9 7 7 7 8 6 6 8 7 5 5 6 5 3 9 6 6 6 2 6 6 6 7 4 3 2 5 3 2 2 4 5 5 5 6 6 6
4 5 5 5 5 5 5 3 3 3 4 4 5 5 6 6 5 4 9 9 8 7 6 7 5 6 8 4 7 8 5 9 13 12 10 6 3 3 5 7 7 8 8 7 5 4 4 6 5 4 5 5 6 5
Wind_Direction
281 280 283 282 265 248 213 195 183 218 216 209 224 262 260 297 323 322 36 353 312 315 103 291 310 146 181 274 358 66 38 343 15 334 333 319 325 316 267 139 240 206 195 225 229 238 238 355 47 5 345 341 3 2
283 278 276 276 260 219 207 177 177 199 202 191 197 219 214 270 304 339 268 180 324 273 54 25 335 350 342 354 357 97 120 65 19 64 11 302 319 313 324 303 10 243 320 283 223 224 68 44 69 50 22 353 1 13
282 283 281 275 250 221 190 169 175 187 190 186 183 189 208 242 288 310 323 15 235 272 171 196 202 196 233 267 15 346 93 75 80 38 67 297 276 317 282 311 333 310 22 305 319 84 68 44 53 41 31 12 19 17
279 277 277 272 246 192 162 165 172 179 182 184 186 187 208 238 287 308 295 41 282 300 289 146 104 156 197 159 104 48 96 88 103 100 109 248 277 8 343 310 313 19 301 317 277 96 127 64 32 12 16 8 10 43
284 278 272 258 184 158 155 167 170 173 183 177 185 176 189 242 283 278 302 334 337 313 335 146 155 172 187 165 168 121 130 153 136 121 134 209 306 316 356 301 272 358 347 316 29 334 346 19 6 6 356 350 8 27
285 279 266 204 156 151 157 170 167 171 179 166 165 159 159 229 294 293 216 70 340 340 279 226 82 162 175 171 202 137 166 166 189 152 161 174 124 223 323 290 273 341 308 297 287 305 327 333 335 7 341 328 7 20
288 282 261 160 145 145 152 154 154 164 159 151 146 141 142 207 261 304 15 355 331 300 253 252 157 164 187 181 215 179 184 196 170 181 147 146 171 199 257 297 342 305 316 303 288 282 268 11 344 336 327 311 304 105
288 264 157 136 134 143 147 146 145 144 141 137 132 130 143 223 277 252 157 241 308 279 271 276 122 160 185 214 209 234 77 22 193 257 156 147 145 172 219 258 316 329 316 304 320 77 23 360 358 358 332 318 269 72
153 135 132 133 139 146 140 139 138 136 132 133 138 154 159 226 237 56 108 252 260 300 303 279 277 111 163 210 194 199 154 177 198 262 182 167 121 43 305 286 347 354 321 302 276 312 38 42 355 5 339 291 64 57
137 133 133 143 154 145 141 138 133 132 136 142 187 196 163 42 124 173 189 193 185 201 244 264 268 205 230 150 197 135 183 188 202 218 88 75 83 347 60 94 103 25 344 342 304 25 332 70 6 357 327 322 44 49
127 130 135 137 138 141 140 138 134 124 135 208 211 74 68 328 256 240 211 209 178 217 230 235 262 272 300 242 244 169 191 177 222 192 175 138 105 103 96 98 109 80 28 32 47 13 22 20 6 343 303 314 73 48
135 135 137 138 144 147 146 147 159 194 153 86 98 120 143 204 230 232 199 178 223 251 195 201 193 222 272 286 240 263 29 196 225 153 139 92 120 111 109 98 116 114 117 95 78 54 24 18 9 325 66 0 45 68
128 130 135 141 151 150 154 164 172 333 309 198 161 148 180 177 214 214 194 212 216 195 215 175 174 184 214 256 283 256 248 235 85 130 100 112 133 122 102 100 99 131 118 135 127 108 101 68 47 19 4 355 27 82
124 126 134 149 153 154 161 160 18 322 280 230 174 226 228 193 231 199 213 203 180 174 144 175 148 242 52 260 230 240 86 346 55 58 127 144 139 123 116 109 87 52 55 131 178 171 135 150 193 174 120 8 16 46
119 121 135 149 153 153 145 132 345 290 293 247 221 240 218 251 209 317 124 109 116 135 138 128 90 16 205 238 228 198 169 97 120 112 101 130 142 127 118 125 109 69 58 58 59 51 51 73 108 110 103 97 68 51
148 152 122 133 141 137 141 142 286 288 275 271 246 277 346 354 282 165 109 105 131 109 96 85 121 230 216 249 201 198 103 129 90 129 114 128 144 137 120 98 82 102 159 103 105 74 79 63 26 27 44 66 75 79
172 47 139 132 133 139 164 205 243 249 287 280 350 2 357 20 344 65 72 62 22 45 96 134 196 195 209 114 92 30 89 144 100 80 79 103 122 152 135 108 105 101 87 48 48 55 18 61 139 119 78 15 0 41
64 137 136 138 147 136 182 218 252 254 12 28 342 337 329 43 343 73 84 84 79 42 329 7 353 355 83 68 64 123 110 93 88 75 72 79 75 78 99 113 113 110 109 79 22 15 51 356 332 70 101 353 84 90
130 147 153 170 204 240 167 175 235 113 73 71 325 28 21 13 343 358 46 20 338 113 133 70 39 25 2 53 109 81 85 96 90 91 94 91 99 102 101 113 134 101 121 122 53 16 57 86 31 3 21 4 21 35
104 131 154 103 329 222 207 91 251 225 90 99 25 11 7 340 285 291 46 45 56 67 73 80 89 112 115 134 130 111 99 99 111 111 110 111 107 90 44 26 18 302 249 157 132 296 91 111 68 78 54 39 10 39
146 150 191 261 245 245 240 167 182 150 118 97 179 58 38 334 31 51 39 45 78 89 100 103 112 94 82 101 109 92 119 140 122 127 140 119 116 124 133 139 248 84 4 28 4 115 258 64 44 345 38 71 80 84
92 161 220 197 258 215 255 209 158 145 162 135 153 106 88 3 25 54 50 74 53 67 94 103 116 130 117 103 92 89 102 98 91 113 103 96 178 93 64 49 18 46 46 50 31 18 52 53 7 326 9 1 136 80
160 175 220 216 245 200 241 160 188 168 142 167 154 115 131 122 68 3 76 69 93 69 76 86 79 88 113 128 127 122 118 119 144 99 133 75 79 81 76 66 35 34 29 11 26 29 48 357 92 330 329 357 2 65
107 201 215 216 219 236 164 175 177 153 86 193 127 125 137 122 124 66 94 116 113 120 134 161 179 151 140 155 157 107 7 58 89 113 89 77 125 98 75 64 48 42 23 30 4 19 36 34 317 343 339 348 6 342
239 238 197 272 237 265 240 94 122 142 149 147 118 141 150 176 139 119 153 174 152 157 194 223 215 151 120 211 118 97 267 316 113 91 61 56 36 77 72 60 11 65 33 32 21 27 353 358 355 335 356 5 2 338
250 183 156 289 359 39 100 143 140 345 103 83 96 155 196 192 122 126 156 159 161 181 186 256 327 80 105 57 88 81 77 18 342 80 67 17 43 48 49 63 68 62 51 56 29 24 18 7 17 10 353 26 205 313
237 124 112 299 332 131 150 36 30 37 58 146 139 132 158 98 81 108 125 145 178 176 159 205 255 295 93 102 99 74 91 74 57 65 70 75 75 59 65 56 52 52 47 72 59 35 66 34 25 347 328 353 346 338
65 17 106 95 52 61 50 63 75 105 58 317 59 48 37 36 87 117 146 165 175 169 175 177 211 140 95 107 117 121 102 118 144 147 133 117 109 102 109 115 111 175 37 80 95 124 57 273 293 303 282 268 294 292
155 104 99 122 107 98 25 29 53 67 336 310 86 75 87 68 110 130 153 152 156 174 174 159 152 122 134 156 131 144 181 178 141 156 162 134 136 142 161 170 157 188 210 191 204 247 279 293 308 305 317 319 353 271
171 135 94 67 63 88 67 3 75 69 43 53 86 107 110 122 124 142 160 174 177 187 171 174 154 194 164 163 159 170 183 162 192 144 151 108 99 102 84 46 3 267 211 295 273 186 228 243 242 242 240 253 239 281
143 113 99 115 110 97 104 105 121 144 132 121 132 131 130 133 152 182 182 188 197 216 170 174 168 204 187 162 156 185 173 135 75 58 7 354 34 59 24 321 293 50 27 341 324 347 161 270 320 22 24 19 10 342
181 124 145 133 136 130 180 191 177 167 161 180 171 169 149 191 197 176 206 200 212 212 191 190 179 183 189 165 150 125 350 120 138 155 187 337 36 30 332 315 357 88 327 299 313 12 45 296 351 17 353 14 6 7
138 143 104 116 142 181 190 210 201 239 214 221 235 206 209 210 231 152 159 192 207 212 189 187 211 165 143 203 152 128 152 101 93 104 103 99 77 353 311 300 345 344 349 331 332 351 16 19 344 357 345 348 342 344